Regional Weather Roundup
Issued by NWS

Home | Current Version | Previous Version | Graphics & Text | Print | Product List | Glossary On
Versions: 1 2 3 4 5 6 7 8 9 10 11 12 13 14 15 16 17 18 19 20 21 22 23 24 25 26 27 28 29 30 31 32 33 34 35 36 37 38 39 40 41 42 43 44 45 46 47 48 49 50
000
ASUS43 KBIS 280502
RWRND

NORTH DAKOTA REGIONAL WEATHER ROUNDUP
NATIONAL WEATHER SERVICE BISMARCK ND
1200 AM CDT SUN MAY 28 2017

NOTE: "FAIR" INDICATES FEW OR NO CLOUDS BELOW 12,000 FEET WITH NO
SIGNIFICANT WEATHER AND/OR OBSTRUCTIONS TO VISIBILITY.


NDZ001>003-009>011-017-280600-
NORTHWEST NORTH DAKOTA

CITY           SKY/WX    TMP DP  RH WIND       PRES   REMARKS
WILLISTON      FAIR      52  35  52 CALM      29.91R
MINOT          FAIR      51  43  74 SW7       29.84R
MINOT AFB      PTCLDY    46  45  97 W6        29.83R
$$

NDZ018>021-031>035-040>046-280600-
SOUTHWEST NORTH DAKOTA

CITY           SKY/WX    TMP DP  RH WIND       PRES   REMARKS
BISMARCK       FAIR      51  44  77 CALM      29.87S
DICKINSON      FAIR      50  40  68 W10       29.90R
GARRISON         N/A     43  39  86 SW5       29.84S
HETTINGER ARPT PTCLDY    47  39  74 NW6       29.95S
$$

NDZ004>008-012>016-024-026-027-054-280600-
NORTHEAST NORTH DAKOTA

CITY           SKY/WX    TMP DP  RH WIND       PRES   REMARKS
GRAND FORKS    CLOUDY    53  49  86 W10       29.74R
GRND FRKS AFB  CLOUDY    52  47  84 NW12      29.75R
DEVILS LAKE    FAIR      49  46  90 CALM      29.80S
$$

NDZ022-023-025-028>030-036>039-047>053-280600-
SOUTHEAST NORTH DAKOTA

CITY           SKY/WX    TMP DP  RH WIND       PRES   REMARKS
FARGO          PTCLDY    54  46  74 W8        29.76R
JAMESTOWN      FAIR      51  46  83 NW10      29.81R
$$




USA.gov is the U.S. government's official web portal to all federal, state and local government web resources and services.